09:09
Airports
History
Links
Donate
Help keep this website running!
PayPal
Bitcoin
This page is community maintained. The information is intended for PC simulator navigation or reference.
Always use approved charts for navigation.
EDHU
Lauenbrueck
Lauenbrueck (EDHU)
Lauenbr├╝ck, Niedersachsen, Germany (27389)
(C)
Lat/Lng:53° 12' 28.1" N / 9° 34' 24.09" E
53.207806 / 9.573357
Elevation:98'ft / 30mMSL
ID / ICAO:EDHU
Runways:1
Longest:11-29
Grass 596m / 1,954ft
Controlled:Yes
Nearby Weather08:50 GMT 2018-02-18
Nearby weather at EDHI, Hamburg Finkenwerder located 25.1 nautical miles from EDHU
Altimeter: 30.36
Visibility: 6.2 statute miles
Wind: 4 knots (from 150°)
Temp: 2°c / 36°f
Humidity: 69.4%

METAR: EDHI 180850Z AUTO 15004KT 120V190 9999 // NCD 02/M03 Q1028

(Powered by phpweather)
Airport Radio Frequencies
Tower: 123.65
Nearby VORs <50NM
Nearby NDBs
Runway 11 / 29
Dimensions:595.5 x 25m 1954' x 82'ft
Surface:Grass
Runway 11 [A]Runway 29 [B]
Heading:110°TH 290°TH
Lat:
Lng:
53° 12' 31.51"N
9° 34' 8.88"E
53° 12' 24.7"N
9° 34' 39.28"E
User Notes and Comments
53° 12' 28.1" N / 9° 34' 24.09" E
Distance To
Airport ID:
Nearby Airports
(U) Rotenburg Wuemme 10.9 NM
EDXQ WSW 238°
(C) Seedorf 15.7 NM
EDXS NW 304°
(C) Weser-Wuemme 18.5 NM
EDWM SW 234°
4 Verden Scharnhorst 20.5 NM
EDWV SW 215°
(U) Karlshoefen 24.1 NM
EDWK WNW 291°
(U) Stade 24.5 NM
EDHS N 352°
(C) Hamburg Finkenwerder 25.1 NM
EDHI ( WX ) NNE 25°
VFR Chart
Flight Planning at SkyVector.com